Regional Weather Roundup
Issued by NWS

Home | Current Version | Previous Version | Text Only | Print | Product List | Glossary Off
Versions: 1 2 3 4 5 6 7 8 9 10 11 12 13 14 15 16 17 18 19 20 21 22 23 24 25 26 27

000
ASUS45 KTFX 300710
RWRMT
MONTANA REGIONAL WEATHER ROUNDUP
NATIONAL WEATHER SERVICE GREAT FALLS MT
100 AM MDT SAT APR 30 2016

NOTE: "FAIR" INDICATES FEW OR NO CLOUDS BELOW 12000 FEET WITH NO
SIGNIFICANT WEATHER AND/OR OBSTRUCTIONS TO VISIBILITY.

MTZ001>007-043-300800-
WEST OF THE DIVIDE

CITY           SKY/WX    TMP DP  RH WIND       PRES   REMARKS
KALISPELL      PTCLDY    36  34  92 CALM      30.04R
MISSOULA       CLOUDY    44  40  85 SW3       30.06R
BUTTE          CLOUDY    36  33  89 NW5       30.00S
MULLAN PASS    FLURRIES  32  31  96 CALM      30.03R
ANACONDA         N/A     37  36  93 CALM      30.02R
DEER LODGE       N/A     39  36  87 NW5       30.03R
EUREKA           N/A     45  37  76 E3        30.06R
HAMILTON         N/A     45  36  70 NW7       30.04R
LIBBY            N/A     43  37  81 CALM      30.06R
PLAINS           N/A     45  38  76 CALM      30.05R
$$

MTZ008-052>055-300800-
SOUTHWEST MONTANA

CITY           SKY/WX    TMP DP  RH WIND       PRES   REMARKS
BOZEMAN        PTCLDY    40  30  67 E7        29.99R
DILLON         CLOUDY    42  37  82 N7        29.96R
ENNIS          CLOUDY    39  34  81 N9        30.01R
THREE FORKS      N/A     39  34  82 CALM      29.99R
TWIN BRIDGES     N/A     42  29  60 N13       29.96R
$$

MTZ009-010-012-014-046-048-049-054-300800-
EAST SLOPES AND CENTRAL MONTANA

CITY           SKY/WX    TMP DP  RH WIND       PRES   REMARKS
CUT BANK       CLOUDY    36  34  92 E5        30.07R
GREAT FALLS    CLOUDY    40  34  79 E7        30.02R
MALMSTROM AFB  CLOUDY    42  36  80 NW3       30.03R
HELENA         CLOUDY    43  32  65 NW3       30.00R
CHOTEAU          N/A     34  32  93 N13       30.05R WCI  25
CONRAD           N/A     37  37 100 NE3       30.07R
$$

MTZ011-013-016-021-045-047-050-051-300800-
NORTH CENTRAL MONTANA

CITY           SKY/WX    TMP DP  RH WIND       PRES   REMARKS
HAVRE          CLOUDY    46  40  79 NE8       30.08R
LEWISTOWN      CLOUDY    43  35  73 E10       30.06R
N BAR RANCH    CLOUDY    39  37  93 SE7       30.08S
CHINOOK          N/A     46  39  76 E6        30.10R
$$

MTZ017>020-022>027-061-062-300800-
NORTHEAST MONTANA

CITY           SKY/WX    TMP DP  RH WIND       PRES   REMARKS
GLASGOW        CLOUDY    46  35  65 E8        30.12S
JORDAN           N/A     44  38  79 E3        30.09S
SIDNEY         CLEAR     45  30  57 NE7       30.14S
WOLF POINT     MOCLDY    43  34  70 NE9       30.14R
PLENTYWOOD       N/A     45  25  45 E8        30.16S
POPLAR           N/A     45  30  57 E6        30.14S
SCOBEY           N/A     44  24  45 SE6       30.13R
$$

MTZ028>42-056>058-300800-
SOUTHCENTRAL AND SOUTHEAST MONTANA

CITY           SKY/WX    TMP DP  RH WIND       PRES   REMARKS
BAKER          PTCLDY    41  34  76 CALM      30.09R
BILLINGS       CLOUDY    41  37  86 NE7       30.03R
LIVINGSTON     CLOUDY    41  32  70 E13       30.01R
MILES CITY     CLOUDY    45  37  73 N6        30.08S
EKALAKA          N/A     33  28  82 SE2       30.05S
FORSYTH          N/A     45  39  81 E7        30.07S
LAUREL           N/A     41  31  68 N1        30.00S
ROUNDUP          N/A     43  36  76 NE5       29.97R
$$

REGIONAL REPORTS...DAKOTAS

CITY           SKY/WX    TMP DP  RH WIND       PRES   REMARKS
WILLISTON      CLEAR     38  28  67 N5        30.16R
MINOT          CLEAR     40  28  62 NW5       30.19R
DICKINSON      CLEAR     36  29  75 E7        30.09S WCI  30
BEACH          CLOUDY    39  34  81 E8        30.14R
CROSBY           N/A     36  25  64 E9        30.22S WCI  29
WATFORD CITY     N/A     37  28  70 SE7       30.16R
BISMARCK       CLEAR     42  33  70 E12       30.14R
GRAND FORKS    CLEAR     44  32  62 E9        30.19R
FARGO          CLEAR     48  32  53 E12       30.14R
BUFFALO SD       N/A     40  33  76 NE7       30.01S
RAPID CITY     CLOUDY    40  37  89 N6        30.04S
$$

REGIONAL REPORTS...WYOMING/IDAHO/WASHINGTON

CITY           SKY/WX    TMP DP  RH WIND       PRES   REMARKS
GILLETTE       CLOUDY    38  37  97 N3        30.02S
SHERIDAN       CLOUDY    41  36  82 CALM      30.04R
BUFFALO WY       N/A    N/A N/A N/A MISG      30.03S
CODY           CLOUDY    37  32  81 CALM      29.99S
YELLOWSTONE LA   N/A     31  23  72 CALM      29.99R
IDAHO FALLS    PTCLDY    35  33  92 N3        29.92R
SALMON         CLEAR     36  32  87 S3        29.99R
BOISE          CLEAR     46  37  71 NW13      29.95R
SPOKANE        LGT RAIN  49  46  90 SW7       30.05R
$$

REGIONAL REPORTS...ALBERTA

CITY           SKY/WX    TMP DP  RH WIND       PRES   REMARKS
EDMONTON       CLOUDY    52  32  46 S8        30.08R
CALGARY        CLOUDY    45  32  61 S7        30.07R
LETHBRIDGE     CLOUDY    43  37  81 S9        30.07R
MEDICINE HAT   CLOUDY    48  39  71 NE7       30.10R
WATERTON GATE    N/A     32  28  86 SW3         N/A
MILK RIVER       N/A     36  32  87 SW2         N/A
ONEFOUR          N/A     43  37  81 E8          N/A
$$

REGIONAL REPORTS...SASKATCHEWAN

CITY           SKY/WX    TMP DP  RH WIND       PRES   REMARKS
SWIFT CURRENT  CLEAR     36  27  69 SE8       30.14R WCI  29
REGINA         CLEAR     45  19  36 SE16      30.23R
SASKATOON        N/A     45  25  45 SE10      30.22R
CYPRESS HILLS    N/A     41  32  70 SE6         N/A
VAL MARIE        N/A     43  36  75 SE8         N/A
ROCKGLEN         N/A     39  27  60 E5          N/A
$$




USA.gov is the U.S. government's official web portal to all federal, state and local government web resources and services.